Weather History for KEVV - February, 2014

Change the Weather History Date:

Sunday, February 2, 2014

  Actual Average Record
Temperature  
Mean Temperature 32 °F 34 °F  
Max Temperature 36 °F 43 °F 63 °F (1911)
Min Temperature 27 °F 25 °F -23 °F (1951)
Degree Days  
Heating Degree Days 33 31  
Month to date heating degree days 50 63  
Since 1 July heating degree days 3026 2842  
Cooling Degree Days 0 0  
Month to date cooling degree days 0 0  
Year to date cooling degree days 0 0  
Moisture  
Dew Point 26 °F    
Average Humidity 84    
Maximum Humidity 96    
Minimum Humidity 72    
Precipitation  
Precipitation 0.41 in 0.12 in 1.73 in (1989)
Month to date precipitation 0.91 0.24  
Year to date precipitation 2.60 3.34  
Snow  
Snow T in 0.20 in 2.70 in (1961)
Month to date snowfall T 0.3  
Since 1 July snowfall 7.8 7.2  
Snow Depth T in    
Sea Level Pressure  
Sea Level Pressure 30.18 in    
Wind  
Wind Speed 10 mph (North)    
Max Wind Speed 17 mph    
Max Gust Speed 23 mph    
Visibility 8 miles    
Events Rain , Snow    
T = Trace of Precipitation, MM = Missing Value Source: NWS Daily Summary

Daily Weather History Graph

Daily Weather History Graph

Search for Another Location

Airport or City:

Trip Planner

Search our weather history database for the weather conditions in past years. The results will help you decide how hot, cold, wet, or windy it might be!

Date:

Astronomy

Feb. 02, 2014 Rise Set
Actual Time 6:53 AM CST 5:14 PM CST
Civil Twilight 6:26 AM CST 5:42 PM CST
Nautical Twilight 5:54 AM CST 6:13 PM CST
Astronomical Twilight 5:23 AM CST 6:44 PM CST
Moon 8:23 AM CST (2/2) 8:53 PM CST (2/2)
Length of Visible Light 11h 16m
Length of Day
10h 20m
Waxing Crescent, 11% of the Moon is Illuminated
Feb 2
Waxing Crescent
Feb 6
First Quarter
Feb 14
Full
Feb 22
Last Quarter
Mar 1
New

Hourly Weather History & Observations

Time (CST) Temp. Windchill Dew Point Humidity Pressure Visibility Wind Dir Wind Speed Gust Speed Precip Events Conditions
12:54 AM 35.1 °F 28.6 °F 33.1 °F 92% 30.00 in 6.0 mi NNW 8.1 mph - 0.07 in Rain Rain
1:54 AM 35.1 °F 27.9 °F 32.0 °F 89% 30.01 in 6.0 mi NNW 9.2 mph - 0.09 in Rain Light Rain
2:54 AM 34.0 °F 26.0 °F 32.0 °F 92% 30.04 in 5.0 mi North 10.4 mph - 0.12 in Rain Rain
3:54 AM 33.1 °F 23.9 °F 30.9 °F 92% 30.06 in 5.0 mi NNW 12.7 mph 23.0 mph 0.08 in Rain Rain
4:54 AM 33.1 °F 25.5 °F 30.0 °F 89% 30.08 in 9.0 mi North 9.2 mph 21.9 mph 0.05 in Rain Light Rain
5:54 AM 33.1 °F 24.4 °F 30.0 °F 89% 30.09 in 10.0 mi North 11.5 mph 19.6 mph 0.00 in   Overcast
6:54 AM 32.0 °F 23.0 °F 28.9 °F 88% 30.13 in 3.0 mi NNW 11.5 mph - N/A   Overcast
7:54 AM 33.1 °F 24.4 °F 28.9 °F 85% 30.18 in 3.0 mi NNW 11.5 mph - N/A   Overcast
8:01 AM 33.1 °F 24.4 °F 28.9 °F 85% 30.17 in 6.0 mi NNW 11.5 mph 18.4 mph N/A   Overcast
8:54 AM 32.0 °F 24.8 °F 28.9 °F 88% 30.20 in 6.0 mi North 8.1 mph - N/A   Overcast
9:54 AM 32.0 °F 22.5 °F 28.0 °F 85% 30.24 in 7.0 mi NNW 12.7 mph - N/A   Overcast
10:54 AM 32.0 °F 24.2 °F 27.0 °F 82% 30.23 in 7.0 mi North 9.2 mph - N/A   Overcast
11:54 AM 32.0 °F 23.6 °F 27.0 °F 82% 30.22 in 7.0 mi North 10.4 mph - N/A   Overcast
12:54 PM 30.9 °F 22.8 °F 26.1 °F 82% 30.23 in 8.0 mi NNW 9.2 mph - N/A   Overcast
1:54 PM 30.0 °F 21.1 °F 25.0 °F 82% 30.23 in 4.0 mi NNW 10.4 mph 23.0 mph 0.00 in Snow Light Snow
2:42 PM 30.0 °F 20.5 °F 25.0 °F 82% 30.23 in 5.0 mi NNW 11.5 mph 19.6 mph 0.00 in Snow Light Snow
2:54 PM 30.0 °F 21.1 °F 24.1 °F 79% 30.23 in 7.0 mi NNW 10.4 mph - 0.00 in   Overcast
3:54 PM 30.0 °F 21.1 °F 24.1 °F 79% 30.22 in 10.0 mi North 10.4 mph - N/A   Overcast
4:54 PM 30.0 °F 20.5 °F 23.0 °F 75% 30.22 in 10.0 mi North 11.5 mph - N/A   Overcast
5:54 PM 28.9 °F 21.9 °F 21.9 °F 75% 30.26 in 10.0 mi North 6.9 mph - N/A   Overcast
6:54 PM 28.9 °F 19.2 °F 23.0 °F 78% 30.24 in 10.0 mi North 11.5 mph - N/A   Overcast
7:45 PM 28.9 °F 19.8 °F 21.9 °F 75% 30.21 in 9.0 mi North 10.4 mph 19.6 mph N/A   Overcast
7:54 PM 28.0 °F 17.5 °F 21.9 °F 78% 30.22 in 9.0 mi North 12.7 mph 19.6 mph N/A   Overcast
8:34 PM 28.9 °F 19.2 °F 21.9 °F 75% 30.22 in 9.0 mi North 11.5 mph - N/A   Overcast
8:54 PM 28.0 °F 18.6 °F 21.9 °F 78% 30.23 in 9.0 mi North 10.4 mph - N/A   Overcast
9:54 PM 28.0 °F 20.0 °F 21.0 °F 75% 30.24 in 6.0 mi North 8.1 mph - 0.00 in Snow Light Snow
10:54 PM 28.0 °F 18.6 °F 21.0 °F 75% 30.21 in 10.0 mi North 10.4 mph - 0.00 in   Overcast
11:54 PM 27.0 °F 18.0 °F 19.9 °F 75% 30.22 in 10.0 mi North 9.2 mph - N/A   Overcast